• In Uzbekistan
  • List of Countries
  • For 7 days
  • Water Temperature
  • Satellite Maps
  • Weather Map
  • Weather Widgets
  • user-avatar
    Login

    Hourly Weather Novolyubivka

    Today, 17 December, Sunday

    Time Temperature Precipitation Wind Pressure Humidity
    00:00 +6°C° 0 mm 8 mps 751 mmHg 69%
    01:00 +5°C° 0 mm 8 mps 751 mmHg 71%
    02:00 +5°C° 0 mm 7 mps 751 mmHg 73%
    03:00 +5°C° 0 mm 6 mps 751 mmHg 75%
    04:00 +5°C° 0 mm 6 mps 751 mmHg 76%
    05:00 +4°C° 0 mm 7 mps 751 mmHg 77%
    06:00 +4°C° 0 mm 7 mps 751 mmHg 79%
    07:00 +4°C° 0 mm 7 mps 751 mmHg 79%
    08:00 +4°C° 0 mm 7 mps 751 mmHg 79%
    09:00 +4°C° 0 mm 7 mps 751 mmHg 79%
    10:00 +5°C° 0.1 mm 7 mps 751 mmHg 78%
    11:00 +5°C° 0.1 mm 7 mps 751 mmHg 77%
    12:00 +5°C° 0.1 mm 7 mps 751 mmHg 76%
    13:00 +7°C° 0.3 mm 6 mps 751 mmHg 77%
    14:00 +7°C° 0.3 mm 6 mps 751 mmHg 77%
    15:00 +7°C° 0.3 mm 6 mps 751 mmHg 78%
    16:00 +7°C° 0.5 mm 6 mps 751 mmHg 80%
    17:00 +7°C° 0.5 mm 6 mps 751 mmHg 82%
    18:00 +6°C° 0.5 mm 5 mps 751 mmHg 85%
    19:00 +6°C° 0.3 mm 5 mps 751 mmHg 84%
    20:00 +6°C° 0.3 mm 5 mps 751 mmHg 83%
    21:00 +6°C° 0.3 mm 5 mps 751 mmHg 82%
    22:00 +6°C° 0 mm 5 mps 751 mmHg 81%
    23:00 +6°C° 0 mm 5 mps 751 mmHg 80%

    Tomorrow, 18 December, Monday

    Time Temperature Precipitation Wind Pressure Humidity
    00:00 +5°C° 0 mm 6 mps 751 mmHg 78%
    01:00 +5°C° 0 mm 6 mps 751 mmHg 78%
    02:00 +5°C° 0 mm 6 mps 751 mmHg 78%
    03:00 +5°C° 0 mm 6 mps 751 mmHg 78%
    04:00 +5°C° 0.1 mm 6 mps 750 mmHg 79%
    05:00 +5°C° 0.1 mm 7 mps 750 mmHg 80%
    06:00 +5°C° 0.1 mm 7 mps 750 mmHg 80%
    07:00 +5°C° 0.3 mm 7 mps 749 mmHg 81%
    08:00 +5°C° 0.3 mm 7 mps 749 mmHg 82%
    09:00 +5°C° 0.3 mm 7 mps 749 mmHg 84%
    10:00 +5°C° 1.3 mm 8 mps 749 mmHg 84%
    11:00 +5°C° 1.3 mm 8 mps 749 mmHg 84%
    12:00 +5°C° 1.3 mm 8 mps 749 mmHg 85%
    13:00 +5°C° 0.9 mm 7 mps 748 mmHg 85%
    14:00 +6°C° 0.9 mm 7 mps 748 mmHg 85%
    15:00 +7°C° 0.9 mm 6 mps 748 mmHg 85%
    16:00 +7°C° 0 mm 6 mps 748 mmHg 84%
    17:00 +7°C° 0 mm 6 mps 749 mmHg 84%
    18:00 +7°C° 0 mm 6 mps 749 mmHg 83%
    19:00 +5°C° 0 mm 6 mps 749 mmHg 81%
    20:00 +5°C° 0 mm 6 mps 750 mmHg 79%
    21:00 +4°C° 0 mm 6 mps 750 mmHg 77%
    22:00 +5°C° 0 mm 5 mps 751 mmHg 77%
    23:00 +4°C° 0 mm 4 mps 751 mmHg 77%

    Day after tomorrow, 19 December, Tuesday

    Time Temperature Precipitation Wind Pressure Humidity
    00:00 +3°C° 0 mm 4 mps 751 mmHg 77%
    01:00 +3°C° 0 mm 4 mps 752 mmHg 78%
    02:00 +3°C° 0 mm 3 mps 752 mmHg 78%
    03:00 +2°C° 0 mm 3 mps 752 mmHg 79%
    04:00 +2°C° 0 mm 3 mps 752 mmHg 79%
    05:00 +2°C° 0 mm 3 mps 753 mmHg 79%
    06:00 +1°C° 0 mm 3 mps 753 mmHg 79%
    07:00 +1°C° 0 mm 3 mps 753 mmHg 79%
    08:00 +1°C° 0 mm 3 mps 754 mmHg 79%
    09:00 0°C° 0 mm 3 mps 754 mmHg 79%
    10:00 +1°C° 0 mm 3 mps 754 mmHg 76%
    11:00 +1°C° 0 mm 3 mps 754 mmHg 72%
    12:00 0°C° 0 mm 4 mps 755 mmHg 68%
    13:00 0°C° 0 mm 4 mps 755 mmHg 67%
    14:00 +1°C° 0 mm 4 mps 755 mmHg 66%
    15:00 +1°C° 0 mm 4 mps 755 mmHg 65%
    16:00 +1°C° 0 mm 3 mps 756 mmHg 69%
    17:00 0°C° 0 mm 3 mps 756 mmHg 72%
    18:00 +1°C° 0 mm 2 mps 756 mmHg 75%
    19:00 +1°C° 0 mm 2 mps 757 mmHg 77%
    20:00 -1°C° 0 mm 2 mps 757 mmHg 79%
    21:00 -1°C° 0 mm 2 mps 757 mmHg 80%
    22:00 -1°C° 0 mm 2 mps 758 mmHg 80%
    23:00 -1°C° 0 mm 2 mps 758 mmHg 80%

    20 December, Wednesday

    Time Temperature Precipitation Wind Pressure Humidity
    00:00 -1°C° 0 mm 3 mps 759 mmHg 80%
    01:00 -1°C° 0 mm 2 mps 759 mmHg 80%
    02:00 -1°C° 0 mm 2 mps 759 mmHg 80%
    03:00 +1°C° 0 mm 1 mps 759 mmHg 81%
    04:00 +1°C° 0 mm 1 mps 759 mmHg 80%
    05:00 +1°C° 0 mm 1 mps 759 mmHg 80%
    06:00 0°C° 0 mm 1 mps 759 mmHg 80%
    07:00 +1°C° 0 mm 1 mps 760 mmHg 79%
    08:00 +1°C° 0 mm 1 mps 760 mmHg 78%
    09:00 +1°C° 0 mm 1 mps 760 mmHg 78%
    10:00 +1°C° 0 mm 1 mps 760 mmHg 74%
    11:00 +2°C° 0 mm 1 mps 760 mmHg 70%
    12:00 +3°C° 0 mm 1 mps 761 mmHg 66%
    13:00 +3°C° 0 mm 1 mps 760 mmHg 65%
    14:00 +3°C° 0 mm 1 mps 760 mmHg 65%
    15:00 +3°C° 0 mm 1 mps 760 mmHg 64%
    16:00 +2°C° 0 mm 2 mps 760 mmHg 67%
    17:00 +1°C° 0 mm 2 mps 760 mmHg 71%
    18:00 +1°C° 0 mm 2 mps 760 mmHg 74%
    19:00 +1°C° 0 mm 2 mps 760 mmHg 75%
    20:00 +1°C° 0 mm 2 mps 761 mmHg 76%
    21:00 +1°C° 0 mm 2 mps 761 mmHg 76%
    22:00 +1°C° 0.1 mm 2 mps 760 mmHg 79%
    23:00 +1°C° 0.1 mm 2 mps 760 mmHg 82%

    21 December, Thursday

    Time Temperature Precipitation Wind Pressure Humidity
    00:00 +1°C° 0.1 mm 2 mps 760 mmHg 85%
    01:00 +1°C° 0.5 mm 2 mps 760 mmHg 88%
    02:00 0°C° 0.5 mm 3 mps 759 mmHg 90%
    03:00 0°C° 0.5 mm 3 mps 759 mmHg 93%
    04:00 0°C° 1.4 mm 3 mps 758 mmHg 94%
    05:00 0°C° 1.4 mm 3 mps 758 mmHg 95%
    06:00 +1°C° 1.4 mm 3 mps 758 mmHg 96%
    07:00 +1°C° 1.4 mm 3 mps 757 mmHg 96%
    08:00 +1°C° 1.4 mm 3 mps 757 mmHg 96%
    09:00 +1°C° 1.4 mm 3 mps 757 mmHg 96%
    10:00 +1°C° 0.9 mm 3 mps 756 mmHg 95%
    11:00 0°C° 0.9 mm 4 mps 756 mmHg 95%
    12:00 0°C° 0.9 mm 4 mps 755 mmHg 94%
    13:00 0°C° 1 mm 4 mps 755 mmHg 94%
    14:00 0°C° 1 mm 4 mps 754 mmHg 95%
    15:00 0°C° 1 mm 4 mps 753 mmHg 95%
    16:00 0°C° 0.4 mm 4 mps 753 mmHg 94%
    17:00 0°C° 0.4 mm 5 mps 753 mmHg 93%
    18:00 -2°C° 0.4 mm 6 mps 753 mmHg 92%
    19:00 -2°C° 0.2 mm 6 mps 754 mmHg 91%
    20:00 -3°C° 0.2 mm 7 mps 754 mmHg 90%
    21:00 -3°C° 0.2 mm 7 mps 754 mmHg 88%
    22:00 -4°C° 0.1 mm 7 mps 754 mmHg 88%
    23:00 -4°C° 0.1 mm 7 mps 754 mmHg 88%

    22 December, Friday

    Time Temperature Precipitation Wind Pressure Humidity
    00:00 -5°C° 0.1 mm 6 mps 754 mmHg 87%
    01:00 -5°C° 0 mm 6 mps 754 mmHg 87%
    02:00 -6°C° 0 mm 6 mps 754 mmHg 86%
    03:00 -6°C° 0 mm 5 mps 755 mmHg 86%
    04:00 -7°C° 0 mm 5 mps 755 mmHg 87%
    05:00 -7°C° 0 mm 5 mps 754 mmHg 87%
    06:00 -8°C° 0 mm 4 mps 754 mmHg 88%
    07:00 -8°C° 0 mm 4 mps 755 mmHg 88%
    08:00 -7°C° 0 mm 4 mps 755 mmHg 88%
    09:00 -7°C° 0 mm 4 mps 755 mmHg 88%
    10:00 -5°C° 0 mm 4 mps 755 mmHg 85%
    11:00 -5°C° 0 mm 4 mps 755 mmHg 83%
    12:00 -4°C° 0 mm 4 mps 755 mmHg 81%
    13:00 -4°C° 0 mm 4 mps 755 mmHg 80%
    14:00 -4°C° 0 mm 4 mps 754 mmHg 80%
    15:00 -4°C° 0 mm 4 mps 754 mmHg 79%
    16:00 -4°C° 0 mm 4 mps 754 mmHg 80%
    17:00 -4°C° 0 mm 4 mps 755 mmHg 81%
    18:00 -4°C° 0 mm 3 mps 755 mmHg 82%
    19:00 -5°C° 0 mm 3 mps 755 mmHg 83%
    20:00 -5°C° 0 mm 3 mps 755 mmHg 84%
    21:00 -5°C° 0 mm 3 mps 754 mmHg 85%
    22:00 -5°C° 0 mm 3 mps 754 mmHg 85%
    23:00 -5°C° 0 mm 3 mps 754 mmHg 85%
    Show more

    XHprof extension not loaded